Terminal Aerodrome Forecast
Issued by NWS North Platte, NE

Home | Current Version | Previous Version | Graphics & Text | Print | Product List | Glossary On
Versions: 1 2 3 4 5 6 7 8 9 10 11 12 13
000
FTUS43 KLBF 252300
TAFVTN
TAF
KVTN 252320Z 2600/2624 30005KT P6SM SCT070 BKN250
      TEMPO 2600/2604 BKN070
     FM261600 30013G21KT P6SM SCT250
     FM262300 29008KT P6SM SCT250=

USA.gov is the U.S. government's official web portal to all federal, state and local government web resources and services.